• In Deutschland
  • Länderverzeichnis
  • Für 7 Tage
  • Wassertemperatur
  • Satellitenkarten
  • Wetterkarte
  • Widgets
  • user-avatar
    Anmelden

    Stündliche Wetter Lenzkirch

    Heute, 16 Juli, Montag

    Zeit Temperatur Niederschläge Wind Luftdruck Luftfeuchtigkeit
    00:00 +12°C° 0,4 mm 0 m/S 681 mmHg 83%
    01:00 +12°C° 0 mm 1 m/S 681 mmHg 86%
    02:00 +12°C° 0 mm 1 m/S 681 mmHg 86%
    03:00 +11°C° 0 mm 1 m/S 681 mmHg 87%
    04:00 +11°C° 0 mm 1 m/S 680 mmHg 88%
    05:00 +12°C° 0 mm 1 m/S 681 mmHg 84%
    06:00 +13°C° 0 mm 1 m/S 681 mmHg 80%
    07:00 +15°C° 0 mm 1 m/S 681 mmHg 73%
    08:00 +18°C° 0 mm 1 m/S 682 mmHg 66%
    09:00 +20°C° 0 mm 1 m/S 682 mmHg 58%
    10:00 +20°C° 0 mm 0 m/S 682 mmHg 51%
    11:00 +23°C° 0,1 mm 1 m/S 682 mmHg 48%
    12:00 +24°C° 0,1 mm 1 m/S 682 mmHg 45%
    13:00 +26°C° 0 mm 1 m/S 682 mmHg 42%
    14:00 +25°C° 0,1 mm 1 m/S 681 mmHg 42%
    15:00 +25°C° 0,1 mm 2 m/S 681 mmHg 43%
    16:00 +25°C° 0,1 mm 2 m/S 681 mmHg 44%
    17:00 +23°C° 0,1 mm 2 m/S 681 mmHg 52%
    18:00 +21°C° 0,1 mm 2 m/S 680 mmHg 60%
    19:00 +20°C° 0,1 mm 2 m/S 680 mmHg 68%
    20:00 +19°C° 0,1 mm 1 m/S 680 mmHg 72%
    21:00 +16°C° 0,1 mm 1 m/S 680 mmHg 76%
    22:00 +14°C° 0,1 mm 1 m/S 681 mmHg 80%
    23:00 +14°C° 0 mm 1 m/S 681 mmHg 82%

    Morgen, 17 Juli, Dienstag

    Zeit Temperatur Niederschläge Wind Luftdruck Luftfeuchtigkeit
    00:00 +13°C° 0 mm 1 m/S 681 mmHg 83%
    01:00 +13°C° 0 mm 1 m/S 681 mmHg 84%
    02:00 +13°C° 0 mm 1 m/S 681 mmHg 85%
    03:00 +12°C° 0 mm 1 m/S 681 mmHg 85%
    04:00 +12°C° 0 mm 1 m/S 681 mmHg 86%
    05:00 +13°C° 0 mm 1 m/S 681 mmHg 83%
    06:00 +14°C° 0 mm 1 m/S 682 mmHg 80%
    07:00 +16°C° 0 mm 1 m/S 682 mmHg 77%
    08:00 +18°C° 0,2 mm 1 m/S 683 mmHg 71%
    09:00 +20°C° 0,2 mm 1 m/S 683 mmHg 65%
    10:00 +22°C° 0,2 mm 1 m/S 683 mmHg 59%
    11:00 +23°C° 0,2 mm 1 m/S 684 mmHg 55%
    12:00 +24°C° 0,2 mm 1 m/S 684 mmHg 51%
    13:00 +24°C° 0,2 mm 2 m/S 684 mmHg 47%
    14:00 +24°C° 0,2 mm 2 m/S 684 mmHg 48%
    15:00 +24°C° 0,2 mm 2 m/S 684 mmHg 48%
    16:00 +24°C° 0,2 mm 2 m/S 684 mmHg 49%
    17:00 +23°C° 0,1 mm 1 m/S 684 mmHg 54%
    18:00 +22°C° 0,1 mm 1 m/S 683 mmHg 60%
    19:00 +21°C° 0,1 mm 1 m/S 683 mmHg 66%
    20:00 +19°C° 0,2 mm 1 m/S 683 mmHg 72%
    21:00 +18°C° 0,2 mm 1 m/S 683 mmHg 77%
    22:00 +15°C° 0,2 mm 1 m/S 683 mmHg 82%
    23:00 +14°C° 0,1 mm 1 m/S 683 mmHg 84%

    übermorgen, 18 Juli, Mittwoch

    Zeit Temperatur Niederschläge Wind Luftdruck Luftfeuchtigkeit
    00:00 +14°C° 0,1 mm 1 m/S 683 mmHg 87%
    01:00 +13°C° 0,1 mm 1 m/S 683 mmHg 89%
    02:00 +12°C° 0 mm 0 m/S 683 mmHg 90%
    03:00 +12°C° 0 mm 0 m/S 683 mmHg 91%
    04:00 +11°C° 0 mm 0 m/S 682 mmHg 93%
    05:00 +12°C° 0 mm 0 m/S 683 mmHg 90%
    06:00 +13°C° 0 mm 0 m/S 683 mmHg 87%
    07:00 +15°C° 0 mm 0 m/S 683 mmHg 84%
    08:00 +17°C° 0 mm 0 m/S 684 mmHg 76%
    09:00 +19°C° 0 mm 0 m/S 684 mmHg 68%
    10:00 +21°C° 0 mm 0 m/S 685 mmHg 60%
    11:00 +22°C° 0,1 mm 0 m/S 684 mmHg 57%
    12:00 +25°C° 0,1 mm 1 m/S 684 mmHg 53%
    13:00 +26°C° 0,1 mm 1 m/S 684 mmHg 49%
    14:00 +26°C° 0,1 mm 1 m/S 684 mmHg 49%
    15:00 +25°C° 0,1 mm 1 m/S 684 mmHg 49%
    16:00 +25°C° 0,1 mm 2 m/S 684 mmHg 49%
    17:00 +24°C° 0,1 mm 2 m/S 684 mmHg 55%
    18:00 +23°C° 0,1 mm 2 m/S 683 mmHg 62%
    19:00 +21°C° 0,1 mm 2 m/S 683 mmHg 68%
    20:00 +20°C° 0 mm 1 m/S 683 mmHg 73%
    21:00 +18°C° 0 mm 1 m/S 683 mmHg 78%
    22:00 +16°C° 0 mm 1 m/S 683 mmHg 82%
    23:00 +15°C° 0 mm 1 m/S 683 mmHg 84%

    19 Juli, Donnerstag

    Zeit Temperatur Niederschläge Wind Luftdruck Luftfeuchtigkeit
    00:00 +15°C° 0 mm 1 m/S 683 mmHg 86%
    01:00 +14°C° 0 mm 1 m/S 682 mmHg 88%
    02:00 +13°C° 0 mm 0 m/S 682 mmHg 89%
    03:00 +12°C° 0 mm 0 m/S 682 mmHg 90%
    04:00 +12°C° 0 mm 0 m/S 682 mmHg 91%
    05:00 +13°C° 0 mm 0 m/S 683 mmHg 87%
    06:00 +14°C° 0 mm 0 m/S 683 mmHg 84%
    07:00 +16°C° 0 mm 0 m/S 683 mmHg 80%
    08:00 +18°C° 0,1 mm 0 m/S 683 mmHg 75%
    09:00 +21°C° 0,1 mm 1 m/S 684 mmHg 69%
    10:00 +23°C° 0,1 mm 1 m/S 684 mmHg 63%
    11:00 +24°C° 0,2 mm 1 m/S 684 mmHg 59%
    12:00 +25°C° 0,2 mm 1 m/S 684 mmHg 54%
    13:00 +26°C° 0,2 mm 1 m/S 684 mmHg 50%
    14:00 +26°C° 0,1 mm 1 m/S 684 mmHg 49%
    15:00 +26°C° 0,1 mm 1 m/S 684 mmHg 48%
    16:00 +26°C° 0,1 mm 1 m/S 684 mmHg 48%
    17:00 +25°C° 0,1 mm 1 m/S 683 mmHg 54%
    18:00 +24°C° 0,1 mm 1 m/S 683 mmHg 61%
    19:00 +23°C° 0,1 mm 1 m/S 683 mmHg 68%
    20:00 +21°C° 0,1 mm 1 m/S 683 mmHg 73%
    21:00 +19°C° 0,1 mm 1 m/S 682 mmHg 77%
    22:00 +18°C° 0,1 mm 1 m/S 682 mmHg 82%
    23:00 +16°C° 0 mm 1 m/S 682 mmHg 84%

    20 Juli, Freitag

    Zeit Temperatur Niederschläge Wind Luftdruck Luftfeuchtigkeit
    00:00 +16°C° 0 mm 1 m/S 682 mmHg 87%
    01:00 +15°C° 0 mm 1 m/S 681 mmHg 89%
    02:00 +14°C° 0,1 mm 1 m/S 681 mmHg 89%
    03:00 +14°C° 0,1 mm 1 m/S 681 mmHg 90%
    04:00 +14°C° 0,1 mm 1 m/S 681 mmHg 90%
    05:00 +15°C° 0 mm 1 m/S 681 mmHg 87%
    06:00 +16°C° 0 mm 1 m/S 681 mmHg 84%
    07:00 +18°C° 0 mm 1 m/S 681 mmHg 81%
    08:00 +20°C° 0,3 mm 1 m/S 682 mmHg 76%
    09:00 +21°C° 0,3 mm 1 m/S 682 mmHg 70%
    10:00 +23°C° 0,3 mm 1 m/S 682 mmHg 65%
    11:00 +24°C° 0,7 mm 1 m/S 682 mmHg 62%
    12:00 +24°C° 0,7 mm 1 m/S 682 mmHg 60%
    13:00 +25°C° 0,7 mm 1 m/S 682 mmHg 57%
    14:00 +25°C° 0,5 mm 2 m/S 682 mmHg 58%
    15:00 +25°C° 0,5 mm 2 m/S 682 mmHg 59%
    16:00 +25°C° 0,5 mm 2 m/S 682 mmHg 61%
    17:00 +23°C° 0,8 mm 2 m/S 681 mmHg 69%
    18:00 +20°C° 0,8 mm 2 m/S 681 mmHg 77%
    19:00 +19°C° 0,8 mm 1 m/S 680 mmHg 85%
    20:00 +18°C° 0,6 mm 1 m/S 680 mmHg 87%
    21:00 +16°C° 0,6 mm 1 m/S 680 mmHg 89%
    22:00 +15°C° 0,6 mm 1 m/S 680 mmHg 91%
    23:00 +15°C° 0,1 mm 1 m/S 680 mmHg 92%

    21 Juli, Samstag

    Zeit Temperatur Niederschläge Wind Luftdruck Luftfeuchtigkeit
    00:00 +14°C° 0,1 mm 1 m/S 680 mmHg 93%
    01:00 +14°C° 0,1 mm 1 m/S 680 mmHg 94%
    02:00 +14°C° 0 mm 1 m/S 679 mmHg 94%
    03:00 +13°C° 0 mm 1 m/S 679 mmHg 94%
    04:00 +13°C° 0 mm 1 m/S 679 mmHg 94%
    05:00 +14°C° 0 mm 1 m/S 679 mmHg 93%
    06:00 +14°C° 0 mm 1 m/S 680 mmHg 92%
    07:00 +15°C° 0 mm 1 m/S 680 mmHg 90%
    08:00 +16°C° 0,7 mm 2 m/S 680 mmHg 87%
    09:00 +17°C° 0,7 mm 3 m/S 681 mmHg 83%
    10:00 +18°C° 0,7 mm 3 m/S 681 mmHg 80%
    11:00 +18°C° 0,6 mm 4 m/S 681 mmHg 79%
    12:00 +18°C° 0,6 mm 4 m/S 681 mmHg 77%
    13:00 +18°C° 0,6 mm 4 m/S 681 mmHg 75%
    14:00 +19°C° 0,2 mm 5 m/S 682 mmHg 72%
    15:00 +19°C° 0,2 mm 5 m/S 682 mmHg 68%
    16:00 +19°C° 0,2 mm 5 m/S 682 mmHg 64%
    17:00 +18°C° 0,5 mm 4 m/S 682 mmHg 72%
    18:00 +17°C° 0,5 mm 4 m/S 682 mmHg 79%
    19:00 +16°C° 0,5 mm 3 m/S 682 mmHg 86%
    20:00 +14°C° 0,4 mm 3 m/S 682 mmHg 88%
    21:00 +14°C° 0,4 mm 2 m/S 683 mmHg 89%
    22:00 +13°C° 0,4 mm 2 m/S 683 mmHg 90%
    23:00 +13°C° 0,2 mm 2 m/S 683 mmHg 91%
    Mehr zeigen